Miscellaneous Local Product
Issued by NWS North Platte, NE

Home | Current Version | Previous Version | Graphics & Text | Print | Product List | Glossary On
Versions: 1 2 3 4 5 6 7 8 9 10 11 12 13 14 15 16 17 18 19 20 21 22 23 24 25 26 27 28 29 30 31 32 33 34 35 36 37 38 39 40 41 42 43 44 45 46 47 48 49 50
216
AXUS43 KLBF 300710
MISLBF


WESTERN AND NORTH CENTRAL NEBRASKA HOURLY WEATHER ROUNDUP
NATIONAL WEATHER SERVICE NORTH PLATTE NE
200 AM CDT MON MAY 30 2016

NOTE: "FAIR" INDICATES FEW OR NO CLOUDS BELOW 12,000 FEET WITH NO
SIGNIFICANT WEATHER AND/OR OBSTRUCTIONS TO VISIBILITY.

NOTE: STATIONS NOT REPORTING VARIABLES SUCH AS SKY/WEATHER OR
PRESSURE ARE PROVIDED BY RAWS AND APRS NETWORKS AND ARE NOT UNDER
NATIONAL WEATHER SERVICE QUALITY CONTROL.

...OBSERVATIONS IN AND NEAR THE EASTERN PANHANDLE OF NEBRASKA...

CITY           SKY/WX    TMP DP  RH WIND       PRES   REMARKS
PINE RIDGE     CLOUDY    59  51  75 SW8       29.96S
CHADRON        CLOUDY    51  47  86 S7        29.97S
ALLIANCE       CLOUDY    57  52  83 SW12      30.03S
SIDNEY         CLOUDY    58  50  75 S18G24    30.08S
CRESCENT LAKE    N/A     59  51  75 S9G23       N/A
BIG SPRINGS      N/A     61  55  79 SE10        N/A
$$

...OBSERVATIONS IN NORTHERN NEBRASKA AND FAR SOUTHERN SOUTH DAKOTA...

CITY           SKY/WX    TMP DP  RH WIND       PRES   REMARKS
WINNER         FAIR      64  56  75 S10       29.93F
VALENTINE      CLOUDY    62  50  64 SE6       29.98F
THEDFORD       CLOUDY    65  51  59 S14G20    30.00F
AINSWORTH      CLOUDY    64  51  62 SW15      29.99F
O`NEILL        CLOUDY    66  59  78 E6        30.00F
ORD            CLOUDY    66  53  63 S17       29.97F
BROKEN BOW     CLOUDY    59  56  89 S5        30.02F
BUTTE            N/A     61  58  90 E8          N/A
CHAMBERS         N/A     66  60  81 E3          N/A
EWING            N/A     68  58  71 S8          N/A
$$

...OBSERVATIONS IN SOUTHWEST NEBRASKA AND FAR NORTHEAST COLORADO...

CITY           SKY/WX    TMP DP  RH WIND       PRES   REMARKS
WRAY           FAIR      59  48  67 SE10      30.09F
HOLYOKE        FAIR      61  52  72 SE15      30.10S
IMPERIAL       CLOUDY    59  53  80 S13       30.08F
OGALLALA       CLOUDY    60  51  72 S14       30.00F
NORTH PLATTE   CLOUDY    61  52  72 VRB5      30.03F
MCCOOK         CLOUDY    62  51  67 S6        30.07S
LEXINGTON      CLOUDY    64  51  64 SW10      30.04F
PAXTON           N/A     64  53  67 N10         N/A
STAPLETON        N/A     59  52  78 CALM        N/A
GOTHENBURG       N/A     64  50  60 CALM        N/A
CALLAWAY         N/A     58  54  86 S5          N/A
$$

...OBSERVATIONS IN CENTRAL LINCOLN COUNTY AREA...

CITY           SKY/WX    TMP DP  RH WIND       PRES   REMARKS
N.P. AIRPORT   CLOUDY    61  52  72 VRB5      30.03F
N.P. DOWNTOWN    N/A     63  53  69 SW3G13      N/A
N.P. HILLCREST   N/A     63  53  69 SW12        N/A
$$

...SOME OBSERVATIONS FROM AROUND THE REGION...

CITY           SKY/WX    TMP DP  RH WIND       PRES   REMARKS
DENVER         CLOUDY    48  42  80 SE9       30.13R
LARAMIE        CLOUDY    42  36  79 SW8       30.16S
CHEYENNE       CLOUDY    50  39  66 SW6       30.12S
SCOTTSBLUFF    CLOUDY    58  44  60 SE7       30.03S
RAPID CITY     CLEAR     53  50  89 N6        29.96F
BISMARCK       CLEAR     56  51  84 SE5       29.95F
PIERRE         LGT RAIN  63  54  72 E10       29.94F
SIOUX FALLS    CLOUDY    58  55  90 N3        29.99F
OMAHA          CLOUDY    71  60  68 S5        29.99F
GRAND ISLAND   CLOUDY    67  51  56 SW15      30.01F
KANSAS CITY    CLOUDY    65  59  81 S7        30.04F
WICHITA        MOCLDY    67  61  81 E6        30.03F
OKLAHOMA CITY  CLOUDY    68  61  78 NE10      30.05F
DALLAS         LGT RAIN  72  63  73 NE3       30.01S
AMARILLO       CLEAR     51  49  92 SW8       30.07F
DODGE CITY     CLOUDY    58  51  78 S12       30.08R
HAYS           PTCLDY    61  52  72 SE5       30.02F
GOODLAND       CLOUDY    58  50  75 NE5       30.11R
$$




USA.gov is the U.S. government's official web portal to all federal, state and local government web resources and services.